GW2276 Weather Reports


time (UTC)temp
C
wind
direction
speed
KPH
gust
KPH
rain 1hr
cm
rain 24hr
cm
rain mn
cm
humidity
%
barometer
mb
20260507081549 2 92 0.0 1.6 0.00 1.40 0.00 91 1011.7
20260507081037 2 93 0.0 1.6 0.00 1.40 0.00 91 1011.7
20260507080537 2 93 0.0 1.6 0.00 1.40 0.00 91 1011.5
20260507080043 2 93 0.0 1.6 0.00 1.40 0.00 91 1011.5
20260507075536 3 92 0.0 1.6 0.00 1.47 0.00 91 1011.5
20260507075039 3 79 0.0 1.6 0.00 1.47 0.00 91 1011.6
20260507074550 3 79 0.0 1.6 0.00 1.47 0.00 91 1011.6
20260507074039 3 78 0.0 1.6 0.00 1.47 0.00 90 1011.7
20260507073536 3 75 0.0 1.6 0.00 1.47 0.00 90 1011.5
20260507073044 3 70 0.0 1.6 0.00 1.47 0.00 90 1011.4
20260507072537 3 70 0.0 1.6 0.00 1.47 0.00 89 1011.4
20260507072038 3 69 0.0 1.6 0.00 1.47 0.00 89 1011.5
20260507071550 4 72 0.0 1.6 0.00 1.47 0.00 88 1011.5
20260507071036 4 70 0.0 1.6 0.00 1.47 0.00 88 1011.4
20260507070536 5 70 0.0 1.6 0.00 1.47 0.00 88 1011.4
20260507070048 5 64 0.0 1.6 0.00 1.47 0.00 87 1011.5
20260507065540 5 0 0.0 1.6 0.00 1.47 0.00 87 1011.4
20260507065036 5 67 0.0 1.6 0.00 1.47 0.00 86 1011.4
20260507064551 5 67 0.0 1.6 0.00 1.47 0.00 86 1011.4
20260507064038 5 0 0.0 3.2 0.00 1.47 0.00 84 1011.4
20260507063535 5 307 0.0 3.2 0.00 1.47 0.00 84 1011.5
20260507063049 5 61 0.0 3.2 0.00 1.47 0.00 84 1011.7
20260507062536 5 0 0.0 3.2 0.00 1.47 0.00 84 1011.6
20260507062036 5 6 0.0 3.2 0.00 1.47 0.00 84 1011.7
20260507061552 5 39 1.6 3.2 0.00 1.47 0.00 84 1011.7
20260507061036 5 357 1.6 4.8 0.00 1.47 0.00 84 1011.8
20260507060535 5 24 1.6 4.8 0.00 1.47 0.00 83 1011.9
20260507060043 5 8 1.6 4.8 0.00 1.47 0.00 83 1011.8
20260507055537 5 44 1.6 4.8 0.00 1.47 0.00 83 1011.8
20260507055036 5 332 1.6 4.8 0.00 1.47 0.00 84 1011.7
20260507054541 5 35 1.6 4.8 0.00 1.47 0.00 84 1011.7
20260507054040 6 328 1.6 8.0 0.00 1.47 0.00 84 1011.8
20260507053537 6 338 1.6 8.0 0.00 1.47 0.00 84 1011.7
20260507053041 6 335 3.2 8.0 0.00 1.47 0.00 83 1011.7
20260507052539 6 17 3.2 8.0 0.00 1.47 0.00 84 1011.8
20260507052036 6 332 1.6 9.7 0.00 1.47 0.00 84 1011.8
20260507051552 6 347 1.6 9.7 0.00 1.47 0.00 84 1011.8
20260507051036 6 310 3.2 8.0 0.00 1.47 0.00 84 1011.8
20260507050536 6 28 3.2 8.0 0.00 1.47 0.00 85 1011.9
20260507050050 6 19 3.2 6.4 0.00 1.47 0.00 86 1012.0
20260507045538 6 31 1.6 6.4 0.00 1.47 0.00 86 1011.8
20260507045036 6 15 1.6 6.4 0.00 1.47 0.00 87 1012.0
20260507044555 6 290 1.6 3.2 0.00 1.47 0.00 89 1012.0
20260507044036 6 320 1.6 3.2 0.00 1.47 0.00 89 1011.9
20260507043536 6 344 1.6 6.4 0.00 1.47 0.00 89 1011.9
20260507043055 6 316 0.0 6.4 0.00 1.47 0.00 89 1011.9
20260507042537 6 357 0.0 4.8 0.00 1.47 0.00 90 1011.6
20260507042039 6 37 3.2 4.8 0.00 1.47 0.00 90 1011.6
20260507041542 6 32 3.2 4.8 0.00 1.47 0.00 90 1011.7
20260507041036 6 6 1.6 4.8 0.00 1.47 0.00 90 1011.7
20260507040537 6 32 3.2 6.4 0.00 1.47 0.00 90 1011.7
20260507040042 6 333 1.6 6.4 0.00 1.47 0.00 90 1011.6
20260507035536 6 307 3.2 9.7 0.00 1.47 1.47 90 1011.4
20260507035036 6 18 3.2 9.7 0.00 1.47 1.47 90 1011.3
20260507034551 6 34 1.6 6.4 0.00 1.47 1.47 90 1011.2
20260507034036 6 30 1.6 6.4 0.00 1.47 1.47 90 1011.3
20260507033536 6 16 1.6 6.4 0.00 1.47 1.47 90 1011.3
20260507033044 6 359 1.6 6.4 0.00 1.47 1.47 90 1011.3
20260507032536 6 29 1.6 8.0 0.00 1.47 1.47 90 1011.2
20260507032036 6 42 1.6 8.0 0.00 1.47 1.47 90 1011.3
20260507031549 6 358 3.2 9.7 0.00 1.47 1.47 90 1011.3
20260507031036 7 13 3.2 9.7 0.00 1.47 1.47 91 1011.4
20260507030538 7 31 3.2 9.7 0.00 1.47 1.47 91 1011.3
20260507030049 7 347 3.2 9.7 0.00 1.47 1.47 91 1011.2
20260507025536 7 352 3.2 11.3 0.00 1.47 1.47 92 1011.2
20260507025040 7 340 3.2 11.3 0.00 1.47 1.47 92 1011.2
20260507024553 7 298 3.2 9.7 0.00 1.47 1.47 93 1011.2
20260507024036 7 359 3.2 9.7 0.00 1.47 1.47 94 1011.3
20260507023536 6 285 3.2 8.0 0.00 1.47 1.47 95 1011.2
20260507023103 6 86 1.6 4.8 0.00 1.47 1.47 94 1010.9
20260507022537 6 30 0.0 3.2 0.00 1.47 1.47 94 1011.1
20260507022038 6 152 1.6 3.2 0.00 1.47 1.47 94 1011.0
20260507021550 6 295 0.0 3.2 0.00 1.47 1.47 94 1010.9
20260507021036 6 224 0.0 3.2 0.00 1.47 1.47 94 1010.9
20260507020536 6 0 0.0 3.2 0.00 1.47 1.47 94 1010.8
20260507020057 6 0 0.0 3.2 0.00 1.47 1.47 94 1011.0
20260507015535 6 207 0.0 1.6 0.00 1.60 1.47 94 1010.9
20260507015036 6 0 0.0 1.6 0.00 1.60 1.47 94 1010.9
20260507014546 6 0 0.0 1.6 0.00 1.60 1.47 94 1010.8
20260507014037 6 0 0.0 1.6 0.00 1.60 1.47 94 1010.8
20260507013538 6 0 0.0 1.6 0.00 1.60 1.47 94 1010.8
20260507013048 6 0 0.0 1.6 0.00 1.60 1.47 94 1010.9
20260507012539 6 0 0.0 1.6 0.00 1.60 1.47 94 1010.9
20260507012036 6 0 0.0 1.6 0.00 1.60 1.47 94 1010.8
20260507011550 6 0 0.0 1.6 0.00 1.60 1.47 94 1010.9
20260507011035 6 0 0.0 0.0 0.00 1.60 1.47 94 1010.6
20260507010536 6 0 0.0 1.6 0.00 1.60 1.47 94 1010.5
20260507010050 6 0 0.0 1.6 0.00 1.60 1.47 94 1010.6
20260507005536 6 323 0.0 0.0 0.00 1.60 1.47 94 1010.7
20260507005035 6 0 0.0 0.0 0.00 1.60 1.47 94 1010.6
20260507004551 6 0 0.0 0.0 0.00 1.60 1.47 94 1010.7
20260507004035 6 0 0.0 0.0 0.00 1.60 1.47 94 1010.5
20260507003534 6 0 0.0 0.0 0.00 1.60 1.47 93 1010.5
20260507003103 6 0 0.0 0.0 0.00 1.60 1.47 93 1010.4
20260507002536 6 0 0.0 0.0 0.00 1.60 1.47 93 1010.3
20260507002036 6 0 0.0 0.0 0.00 1.60 1.47 93 1010.1
20260507001608 6 0 0.0 0.0 0.00 1.60 1.47 93 1009.9
20260507001035 6 0 0.0 0.0 0.00 1.60 1.47 93 1010.0
20260507000538 6 0 0.0 0.0 0.00 1.60 1.47 92 1010.2
20260507000045 6 0 0.0 0.0 0.00 1.60 1.47 92 1010.2
20260506235535 6 0 0.0 0.0 0.00 1.85 1.47 92 1010.1
20260506235035 7 0 0.0 0.0 0.00 1.85 1.47 92 1010.0
20260506234554 7 0 0.0 0.0 0.00 1.85 1.47 92 1009.8
20260506234035 7 0 0.0 0.0 0.00 1.85 1.47 91 1009.8
20260506233536 7 0 0.0 0.0 0.00 1.85 1.47 91 1009.9
20260506233041 7 0 0.0 0.0 0.00 1.85 1.47 91 1009.9
20260506232535 7 0 0.0 1.6 0.00 1.85 1.47 91 1010.0
20260506232035 7 323 0.0 1.6 0.00 1.85 1.47 90 1010.0
20260506231549 7 0 0.0 0.0 0.00 1.85 1.47 90 1009.9
20260506231033 7 0 0.0 0.0 0.00 1.85 1.47 90 1009.9
20260506230532 7 0 0.0 0.0 0.00 1.85 1.47 90 1009.8
20260506230058 7 0 0.0 0.0 0.00 1.85 1.47 90 1009.8
20260506225536 7 325 0.0 1.6 0.00 1.85 1.47 90 1009.7
20260506225033 7 325 0.0 1.6 0.00 1.85 1.47 90 1009.6
20260506224548 7 325 0.0 1.6 0.00 1.85 1.47 90 1009.5
20260506224032 7 0 0.0 0.0 0.00 1.85 1.47 91 1009.6
20260506223532 7 0 0.0 1.6 0.00 1.85 1.47 91 1009.5
20260506223049 7 0 0.0 3.2 0.00 1.85 1.47 91 1009.5
20260506222533 7 3 0.0 3.2 0.00 1.85 1.47 90 1009.4
20260506222036 7 337 0.0 3.2 0.00 1.85 1.47 90 1009.3
20260506221603 7 37 0.0 4.8 0.00 1.85 1.47 90 1009.5
20260506221035 7 51 0.0 4.8 0.00 1.85 1.47 91 1009.6
20260506220533 7 51 1.6 4.8 0.00 1.85 1.47 90 1009.7
20260506220051 7 30 0.0 3.2 0.00 1.85 1.47 91 1009.8
20260506215537 7 0 0.0 6.4 0.00 1.85 1.47 91 1009.7
20260506215035 7 55 0.0 6.4 0.00 1.85 1.47 91 1009.7
20260506214544 7 330 3.2 6.4 0.00 1.85 1.47 91 1009.7
20260506214034 7 32 1.6 3.2 0.00 1.85 1.47 91 1009.5
20260506213537 7 31 1.6 6.4 0.00 1.85 1.47 91 1009.7
20260506213043 7 41 1.6 6.4 0.00 1.85 1.47 91 1009.6
20260506212536 7 32 1.6 6.4 0.00 1.85 1.47 91 1009.7
20260506212033 7 354 1.6 9.7 0.00 1.85 1.47 91 1009.7
20260506211548 7 47 3.2 9.7 0.00 1.85 1.47 91 1009.8
20260506211035 7 55 3.2 6.4 0.00 1.85 1.47 91 1009.6
20260506210538 7 356 1.6 6.4 0.00 1.85 1.47 92 1009.6
20260506210052 7 354 3.2 6.4 0.00 1.85 1.47 92 1009.6
20260506205534 7 1 3.2 9.7 0.00 2.03 1.47 92 1009.6
20260506205033 7 32 3.2 14.5 0.00 2.03 1.47 92 1009.5
20260506204547 7 357 4.8 14.5 0.00 2.03 1.47 92 1009.5
20260506204034 7 46 6.4 14.5 0.00 2.03 1.47 92 1009.5
20260506203532 7 347 4.8 9.7 0.00 2.03 1.47 92 1009.5
20260506203044 7 6 3.2 11.3 0.00 2.03 1.47 92 1009.4
20260506202536 7 32 4.8 11.3 0.00 2.03 1.47 92 1009.3
20260506202036 7 32 4.8 11.3 0.00 2.03 1.47 93 1009.4
20260506201542 7 356 4.8 11.3 0.00 2.03 1.47 93 1009.3
20260506201035 7 355 3.2 12.9 0.00 2.03 1.47 93 1009.2
20260506200539 7 43 6.4 12.9 0.00 2.03 1.47 93 1009.3
20260506200040 6 18 4.8 14.5 0.00 2.03 1.47 94 1009.3
20260506195537 6 333 6.4 14.5 0.00 2.21 1.47 94 1009.2
20260506195037 6 27 6.4 12.9 0.00 2.21 1.47 94 1009.1
20260506194540 6 13 3.2 14.5 0.00 2.21 1.47 94 1009.2
20260506194038 6 316 4.8 14.5 0.00 2.21 1.47 94 1009.1
20260506193537 6 29 9.7 14.5 0.00 2.21 1.47 94 1008.9
20260506193049 6 32 8.0 14.5 0.00 2.21 1.47 94 1009.0
20260506192537 7 21 8.0 12.9 0.00 2.21 1.47 94 1009.0
20260506192037 7 57 4.8 14.5 0.00 2.21 1.47 94 1008.8
20260506191545 7 314 6.4 14.5 0.00 2.21 1.47 94 1008.7
20260506191037 7 43 8.0 12.9 0.00 2.21 1.47 94 1008.8
20260506190538 7 329 6.4 12.9 0.00 2.21 1.47 94 1008.7
20260506190045 7 14 3.2 12.9 0.00 2.21 1.47 94 1008.8
20260506185537 7 13 4.8 14.5 0.00 2.21 1.47 94 1008.6
20260506185037 7 333 8.0 14.5 0.00 2.21 1.47 94 1008.5
20260506184551 7 352 8.0 14.5 0.00 2.21 1.47 94 1008.6
20260506184038 7 30 4.8 16.1 0.00 2.21 1.47 94 1008.6
20260506183540 7 41 6.4 16.1 0.00 2.21 1.47 94 1008.8
20260506183053 7 45 8.0 17.7 0.00 2.21 1.47 94 1008.7
20260506182537 7 46 9.7 17.7 0.00 2.21 1.47 94 1008.5
20260506182038 7 5 9.7 17.7 0.00 2.21 1.47 94 1008.5
20260506181549 7 350 6.4 12.9 0.00 2.21 1.47 94 1008.5
20260506181037 7 1 4.8 12.9 0.00 2.21 1.47 95 1008.5
20260506180540 7 321 4.8 12.9 0.00 2.21 1.47 95 1008.5
20260506180045 6 12 4.8 9.7 0.00 2.21 1.47 95 1008.3
20260506175536 6 358 4.8 12.9 0.00 2.21 1.47 95 1008.2
20260506175040 6 344 4.8 14.5 0.00 2.21 1.47 95 1008.1
20260506174548 6 340 4.8 14.5 0.00 2.21 1.47 95 1008.0
20260506174037 6 355 8.0 14.5 0.00 2.21 1.47 95 1008.1
20260506173537 6 356 6.4 14.5 0.03 2.21 1.47 95 1008.0
20260506173047 6 44 4.8 11.3 0.03 2.21 1.47 96 1007.8
20260506172538 6 336 4.8 11.3 0.03 2.21 1.47 95 1007.8
20260506172037 6 345 4.8 11.3 0.03 2.21 1.47 96 1007.7
20260506171549 6 323 6.4 11.3 0.03 2.21 1.47 96 1007.7
20260506171037 6 328 4.8 9.7 0.03 2.21 1.47 96 1007.7
20260506170538 6 9 4.8 9.7 0.03 2.21 1.47 96 1007.7
20260506170054 6 10 4.8 14.5 0.05 2.21 1.47 96 1007.7
20260506165537 6 6 6.4 14.5 0.05 2.21 1.47 96 1007.9
20260506165037 6 342 6.4 14.5 0.05 2.21 1.47 96 1007.9
20260506164555 6 321 6.4 14.5 0.08 2.21 1.47 96 1007.8
20260506164036 6 30 6.4 14.5 0.08 2.21 1.47 96 1007.7
20260506163537 6 350 4.8 14.5 0.08 2.18 1.45 97 1007.6
20260506163045 6 316 4.8 14.5 0.08 2.18 1.45 96 1007.6
20260506162539 6 344 8.0 14.5 0.08 2.18 1.45 96 1007.7
20260506162041 6 3 6.4 14.5 0.08 2.18 1.45 96 1007.7
20260506161540 6 319 4.8 11.3 0.10 2.18 1.45 96 1007.7
20260506161038 6 39 4.8 14.5 0.10 2.18 1.45 96 1007.9
20260506160537 6 57 6.4 14.5 0.10 2.16 1.42 96 1007.8
20260506160048 6 321 6.4 14.5 0.10 2.16 1.42 96 1007.8
20260506155537 6 347 4.8 9.7 0.13 2.16 1.42 96 1007.8
20260506155037 6 15 4.8 17.7 0.13 2.16 1.42 96 1007.7
20260506154554 6 322 6.4 17.7 0.10 2.13 1.40 96 1007.7
20260506154037 6 333 3.2 9.7 0.10 2.13 1.40 96 1007.7
20260506153539 6 41 3.2 11.3 0.08 2.11 1.37 96 1007.7
20260506153044 6 316 4.8 11.3 0.08 2.11 1.37 96 1007.7
20260506152537 6 336 4.8 11.3 0.08 2.11 1.37 96 1007.7
20260506152037 6 354 3.2 11.3 0.08 2.11 1.37 96 1007.8
20260506151542 6 349 4.8 8.0 0.08 2.08 1.32 96 1007.8
20260506151036 6 18 3.2 9.7 0.08 2.08 1.32 96 1007.6
20260506150536 5 37 4.8 9.7 0.08 2.06 1.32 96 1007.8
20260506150100 5 348 4.8 9.7 0.08 2.06 1.32 96 1007.8
20260506145538 5 326 4.8 8.0 0.05 2.03 1.30 95 1007.7
20260506145038 5 326 4.8 8.0 0.08 2.03 1.30 95 1007.5
20260506144550 6 26 3.2 6.4 0.08 2.03 1.30 95 1007.4
20260506144037 6 335 4.8 8.0 0.08 2.03 1.30 96 1007.1
20260506143537 5 349 1.6 11.3 0.10 2.03 1.30 95 1007.0
20260506143045 5 321 3.2 11.3 0.10 2.03 1.30 95 1007.0
20260506142537 5 358 3.2 9.7 0.10 2.03 1.30 95 1007.2
20260506142036 5 37 4.8 9.7 0.10 2.03 1.30 95 1007.1
20260506141544 6 357 3.2 8.0 0.10 2.01 1.27 95 1007.1
20260506141039 5 5 1.6 11.3 0.10 2.01 1.27 95 1007.2
20260506140538 5 15 4.8 12.9 0.10 1.98 1.24 95 1007.1
20260506140059 5 25 6.4 12.9 0.10 1.98 1.24 95 1007.2
20260506135536 5 358 3.2 12.9 0.13 1.98 1.24 95 1007.5
20260506135036 5 339 4.8 9.7 0.13 1.96 1.22 95 1007.2
20260506134554 5 338 1.6 14.5 0.15 1.96 1.22 95 1007.3
20260506134038 5 1 6.4 14.5 0.18 1.96 1.22 95 1007.3
20260506133537 6 352 3.2 14.5 0.18 1.93 1.19 95 1007.1
20260506133104 6 1 3.2 16.1 0.20 1.93 1.19 95 1007.2
20260506132537 6 325 4.8 16.1 0.23 1.93 1.19 95 1007.2
20260506132039 6 352 8.0 16.1 0.25 1.93 1.19 95 1007.4
20260506131545 6 347 6.4 12.9 0.25 1.91 1.17 95 1007.3
20260506131037 6 338 4.8 12.9 0.25 1.91 1.17 95 1007.4
20260506130537 6 330 4.8 12.9 0.25 1.88 1.14 95 1007.4
20260506130044 6 29 6.4 12.9 0.28 1.88 1.14 95 1007.6
20260506125537 6 356 8.0 12.9 0.25 1.85 1.12 95 1007.5
20260506125036 6 351 1.6 19.3 0.25 1.83 1.09 95 1007.6
20260506124542 6 347 6.4 19.3 0.25 1.80 1.07 95 1007.4
20260506124036 6 56 9.7 16.1 0.25 1.78 1.04 95 1007.3
20260506123542 6 345 4.8 11.3 0.25 1.75 1.02 95 1007.4
20260506123042 6 347 6.4 11.3 0.23 1.73 0.99 95 1007.4
20260506122536 6 334 3.2 9.7 0.23 1.70 0.97 95 1007.3
20260506122040 6 342 4.8 11.3 0.23 1.68 0.94 95 1007.3
20260506121557 6 332 6.4 11.3 0.20 1.65 0.91 95 1007.2
20260506121037 6 340 3.2 6.4 0.23 1.65 0.91 95 1007.1
20260506120537 6 281 3.2 11.3 0.23 1.63 0.89 95 1007.0
20260506120100 6 344 3.2 11.3 0.23 1.60 0.86 95 1006.8
20260506115537 6 347 3.2 8.0 0.25 1.60 0.86 95 1006.9
20260506115036 6 327 4.8 11.3 0.23 1.57 0.84 95 1007.1
20260506114551 6 350 3.2 11.3 0.23 1.55 0.81 95 1006.8
20260506114038 6 345 6.4 11.3 0.23 1.52 0.79 95 1007.0
20260506113538 6 26 6.4 11.3 0.23 1.47 0.76 95 1006.9
20260506113051 6 3 4.8 12.9 0.25 1.47 0.76 95 1007.0
20260506112540 6 302 3.2 12.9 0.25 1.47 0.74 95 1006.9
20260506112037 6 324 6.4 12.9 0.25 1.45 0.71 95 1006.8
20260506111548 6 339 3.2 9.7 0.28 1.45 0.71 95 1006.6
20260506111037 6 319 3.2 12.9 0.25 1.42 0.69 95 1006.6
20260506110537 6 359 4.8 12.9 0.25 1.40 0.66 95 1006.5
20260506110107 6 342 6.4 12.9 0.23 1.37 0.64 95 1006.7
20260506105538 6 321 4.8 12.9 0.20 1.32 0.61 95 1006.7
20260506105036 6 4 8.0 16.1 0.23 1.32 0.61 95 1006.7
20260506104557 6 340 6.4 17.7 0.20 1.32 0.58 95 1006.7
20260506104036 6 4 8.0 19.3 0.20 1.30 0.56 95 1006.9
20260506103537 6 23 9.7 19.3 0.18 1.27 0.53 95 1006.8
20260506103047 6 294 6.4 14.5 0.15 1.24 0.51 95 1007.0
20260506102537 7 6 8.0 14.5 0.13 1.22 0.48 94 1006.6
20260506102037 7 39 6.4 11.3 0.10 1.19 0.46 94 1006.6
20260506101541 7 319 6.4 11.3 0.10 1.17 0.43 94 1006.5
20260506101037 7 297 3.2 8.0 0.10 1.17 0.43 94 1006.4
20260506100536 7 352 3.2 8.0 0.08 1.14 0.41 95 1006.3
20260506100058 7 332 1.6 8.0 0.10 1.14 0.41 95 1006.2
20260506095536 7 336 3.2 9.7 0.13 1.14 0.41 95 1006.1
20260506095036 7 35 3.2 9.7 0.10 1.12 0.38 95 1006.2
20260506094544 7 51 3.2 11.3 0.13 1.12 0.38 95 1006.2
20260506094036 7 358 6.4 11.3 0.13 1.09 0.36 95 1006.5
20260506093537 7 40 4.8 11.3 0.15 1.09 0.36 95 1006.4
20260506093043 7 41 4.8 9.7 0.18 1.09 0.36 95 1006.6
20260506092537 8 27 3.2 9.7 0.18 1.09 0.36 96 1006.6
20260506092037 7 27 4.8 8.0 0.23 1.09 0.36 96 1006.7
20260506091542 7 0 0.0 6.4 0.23 1.07 0.33 96 1006.9
20260506091036 7 325 1.6 9.7 0.25 1.07 0.33 96 1006.9
20260506090536 7 325 0.0 9.7 0.23 1.04 0.30 96 1007.0
20260506090042 7 53 4.8 9.7 0.23 1.04 0.30 95 1006.9
20260506085536 7 212 3.2 4.8 0.23 1.02 0.28 95 1007.3
20260506085036 7 334 1.6 4.8 0.20 0.99 0.25 95 1007.2
20260506084611 7 42 3.2 9.7 0.20 0.99 0.25 95 1007.2
20260506084036 7 360 3.2 9.7 0.18 0.97 0.23 95 1007.3
20260506083536 7 354 4.8 14.5 0.18 0.94 0.20 95 1007.3
20260506083045 7 57 8.0 14.5 0.15 0.91 0.18 95 1007.3
20260506082536 7 328 6.4 16.1 0.15 0.91 0.18 95 1007.5
20260506082036 7 31 8.0 16.1 0.10 0.86 0.13 95 1007.5